NSZ5NE ESSA-LIRF

Flight info

Callsign NSZ5NE
Flight time 2h 57m
Altitude 37000
Route BABAP T316 NEPVA DCT ROGMI DCT PENOR/N0446F380 DCT RASAN DCT OBEDI/N0445F390 DCT CHI DCT EKTUK DCT GAVRA DCT RITEB
Aircraft B38M/M-SDE2E3GHILRWXY/LB2

Departure

Time 2026-05-05 05:03
Airport Stockholm-Arlanda Airport (ESSA)

Arrival

Time 2026-05-05 08:01
Airport Rome–Fiumicino Leonardo da Vinci International Airport (LIRF)
Time Latitude Longitude Altitude Speed Heading
2026-05-05 04:47 59.65427 17.93782 114 ft 0 kts 256°
2026-05-05 04:55 59.65432 17.93820 111 ft 4 kts 254°
2026-05-05 04:55 59.65438 17.93862 112 ft 4 kts 258°
2026-05-05 04:55 59.65438 17.93911 114 ft 4 kts 294°
2026-05-05 04:56 59.65423 17.93940 112 ft 2 kts 345°
2026-05-05 04:56 59.65422 17.93941 112 ft 2 kts 346°
2026-05-05 04:57 59.65423 17.93940 112 ft 1 kts 346°
2026-05-05 04:58 59.65442 17.93930 113 ft 6 kts 346°
2026-05-05 04:58 59.65512 17.93895 116 ft 14 kts 346°
2026-05-05 04:58 59.65588 17.93778 114 ft 16 kts 269°
2026-05-05 04:58 59.65564 17.93555 115 ft 18 kts 255°
2026-05-05 04:59 59.65532 17.93296 114 ft 20 kts 256°
2026-05-05 04:59 59.65496 17.93012 112 ft 22 kts 252°
2026-05-05 04:59 59.65436 17.92718 111 ft 24 kts 242°
2026-05-05 04:59 59.65344 17.92514 113 ft 19 kts 219°
2026-05-05 05:00 59.65221 17.92395 113 ft 20 kts 196°
2026-05-05 05:00 59.65076 17.92338 113 ft 22 kts 190°
2026-05-05 05:00 59.64917 17.92281 114 ft 24 kts 191°
2026-05-05 05:00 59.64747 17.92219 114 ft 26 kts 190°
2026-05-05 05:01 59.64578 17.92158 115 ft 19 kts 190°
2026-05-05 05:01 59.64449 17.92109 116 ft 16 kts 200°
2026-05-05 05:01 59.64406 17.91948 114 ft 11 kts 255°
2026-05-05 05:01 59.64413 17.91784 112 ft 14 kts 277°
2026-05-05 05:02 59.64431 17.91615 111 ft 4 kts 298°
2026-05-05 05:02 59.64450 17.91593 110 ft 1 kts 344°
2026-05-05 05:02 59.64466 17.91595 111 ft 5 kts
2026-05-05 05:02 59.64649 17.91658 113 ft 64 kts
2026-05-05 05:03 59.65330 17.91903 107 ft 134 kts 11°
2026-05-05 05:03 59.66349 17.92258 502 ft 156 kts
2026-05-05 05:03 59.67464 17.92618 1224 ft 168 kts
2026-05-05 05:03 59.68544 17.93047 2296 ft 158 kts
2026-05-05 05:04 59.69652 17.93546 2978 ft 164 kts
2026-05-05 05:04 59.70779 17.94037 3746 ft 168 kts
2026-05-05 05:04 59.71969 17.94508 4340 ft 182 kts
2026-05-05 05:04 59.73297 17.94904 4787 ft 206 kts
2026-05-05 05:05 59.74769 17.95506 5368 ft 227 kts 14°
2026-05-05 05:05 59.76102 17.97477 5975 ft 258 kts 53°
2026-05-05 05:05 59.76695 18.00956 6558 ft 280 kts 88°
2026-05-05 05:05 59.76386 18.04862 7186 ft 295 kts 107°
2026-05-05 05:06 59.75923 18.08932 7903 ft 309 kts 104°
2026-05-05 05:06 59.75492 18.13174 8744 ft 317 kts 104°
2026-05-05 05:06 59.75253 18.17587 9602 ft 327 kts 92°
2026-05-05 05:06 59.75253 18.22112 10230 ft 340 kts 92°
2026-05-05 05:07 59.75243 18.26954 10627 ft 361 kts 92°
2026-05-05 05:07 59.75227 18.32053 11104 ft 377 kts 92°
2026-05-05 05:07 59.74862 18.37255 11670 ft 383 kts 112°
2026-05-05 05:07 59.73667 18.41902 12267 ft 380 kts 135°
2026-05-05 05:08 59.71783 18.45458 12900 ft 370 kts 156°
2026-05-05 05:08 59.69518 18.47819 13564 ft 369 kts 165°
2026-05-05 05:08 59.67171 18.49942 14219 ft 372 kts 166°
2026-05-05 05:08 59.64820 18.51989 14953 ft 375 kts 166°
2026-05-05 05:09 59.62415 18.54041 15688 ft 378 kts 167°
2026-05-05 05:09 59.59984 18.56087 16393 ft 381 kts 166°
2026-05-05 05:09 59.57531 18.58133 17134 ft 383 kts 167°
2026-05-05 05:09 59.55056 18.60188 17842 ft 387 kts 167°
2026-05-05 05:10 59.52590 18.62230 18456 ft 390 kts 167°
2026-05-05 05:10 59.50082 18.64303 19041 ft 394 kts 167°
2026-05-05 05:10 59.47542 18.66399 19616 ft 397 kts 167°
2026-05-05 05:10 59.44970 18.68475 20185 ft 397 kts 171°
2026-05-05 05:11 59.42321 18.69427 20695 ft 380 kts 189°
2026-05-05 05:11 59.39743 18.68798 21093 ft 372 kts 200°
2026-05-05 05:11 59.37200 18.67676 21579 ft 375 kts 202°
2026-05-05 05:11 59.34663 18.66433 22134 ft 377 kts 203°
2026-05-05 05:12 59.32137 18.65123 22669 ft 380 kts 203°
2026-05-05 05:12 59.29579 18.63762 23216 ft 383 kts 204°
2026-05-05 05:12 59.26996 18.62366 23672 ft 386 kts 203°
2026-05-05 05:12 59.24305 18.61560 24152 ft 399 kts 193°
2026-05-05 05:13 59.21533 18.61140 24605 ft 400 kts 194°
2026-05-05 05:13 59.18771 18.60694 25014 ft 404 kts 194°
2026-05-05 05:13 59.15962 18.60248 25454 ft 406 kts 194°
2026-05-05 05:13 59.13129 18.59802 25872 ft 409 kts 194°
2026-05-05 05:14 59.10275 18.59353 26232 ft 412 kts 193°
2026-05-05 05:14 59.07407 18.58903 26624 ft 415 kts 193°
2026-05-05 05:14 59.04513 18.58450 27032 ft 417 kts 193°
2026-05-05 05:14 59.01654 18.58003 27416 ft 420 kts 193°
2026-05-05 05:15 58.98728 18.57547 27806 ft 422 kts 193°
2026-05-05 05:15 58.95789 18.57089 28183 ft 425 kts 193°
2026-05-05 05:15 58.92881 18.56315 28544 ft 415 kts 204°
2026-05-05 05:15 58.90203 18.54365 28841 ft 413 kts 209°
2026-05-05 05:16 58.87513 18.52341 29159 ft 416 kts 209°
2026-05-05 05:16 58.84814 18.50277 29510 ft 418 kts 209°
2026-05-05 05:16 58.82105 18.48181 29805 ft 420 kts 209°
2026-05-05 05:16 58.79394 18.46074 30196 ft 420 kts 209°
2026-05-05 05:17 58.76722 18.43996 30622 ft 418 kts 209°
2026-05-05 05:17 58.74026 18.41900 31049 ft 417 kts 209°
2026-05-05 05:17 58.71330 18.39808 31483 ft 416 kts 209°
2026-05-05 05:17 58.68644 18.37727 31910 ft 415 kts 209°
2026-05-05 05:18 58.65964 18.35654 32333 ft 413 kts 209°
2026-05-05 05:18 58.63335 18.33624 32757 ft 412 kts 209°
2026-05-05 05:18 58.60676 18.31574 33188 ft 411 kts 208°
2026-05-05 05:18 58.58025 18.29533 33599 ft 410 kts 208°
2026-05-05 05:19 58.55371 18.27493 33856 ft 411 kts 208°
2026-05-05 05:19 58.52722 18.25461 34104 ft 412 kts 208°
2026-05-05 05:19 58.50054 18.23417 34377 ft 413 kts 208°
2026-05-05 05:19 58.47378 18.21371 34645 ft 413 kts 208°
2026-05-05 05:20 58.44707 18.19332 34913 ft 414 kts 207°
2026-05-05 05:20 58.42024 18.17287 35197 ft 415 kts 207°
2026-05-05 05:20 58.39379 18.15274 35455 ft 415 kts 207°
2026-05-05 05:20 58.36690 18.13231 35723 ft 416 kts 207°
2026-05-05 05:21 58.33991 18.11184 35985 ft 416 kts 207°
2026-05-05 05:21 58.31303 18.09149 36205 ft 417 kts 207°
2026-05-05 05:21 58.28600 18.07105 36399 ft 419 kts 207°
2026-05-05 05:21 58.25884 18.05054 36634 ft 420 kts 207°
2026-05-05 05:22 58.23193 18.03026 36801 ft 421 kts 207°
2026-05-05 05:22 58.17616 17.99545 36815 ft 426 kts 195°
2026-05-05 05:23 58.11769 17.97496 36808 ft 427 kts 197°
2026-05-05 05:23 58.05946 17.95445 36825 ft 427 kts 196°
2026-05-05 05:24 58.00078 17.93394 36822 ft 428 kts 196°
2026-05-05 05:24 57.94246 17.91363 36826 ft 428 kts 196°
2026-05-05 05:25 57.88370 17.89324 36839 ft 428 kts 196°
2026-05-05 05:25 57.82512 17.87297 36842 ft 428 kts 196°
2026-05-05 05:26 57.76686 17.85288 36811 ft 428 kts 196°
2026-05-05 05:26 57.70812 17.83270 36846 ft 429 kts 196°
2026-05-05 05:27 57.64938 17.81258 36848 ft 429 kts 196°
2026-05-05 05:27 57.56133 17.78254 36848 ft 429 kts 196°
2026-05-05 05:28 57.50283 17.76267 36851 ft 429 kts 196°
2026-05-05 05:28 57.44393 17.74272 36856 ft 429 kts 196°
2026-05-05 05:29 57.38516 17.72289 36862 ft 429 kts 195°
2026-05-05 05:29 57.32687 17.70328 36868 ft 429 kts 195°
2026-05-05 05:30 57.26807 17.68356 36868 ft 429 kts 195°
2026-05-05 05:30 57.20920 17.66389 36850 ft 429 kts 195°
2026-05-05 05:31 57.15019 17.64423 36877 ft 431 kts 195°
2026-05-05 05:31 57.09167 17.62480 36876 ft 430 kts 195°
2026-05-05 05:32 57.03268 17.60527 36875 ft 430 kts 195°
2026-05-05 05:32 56.97358 17.58577 36881 ft 430 kts 195°
2026-05-05 05:33 56.92453 17.56963 36876 ft 432 kts 195°
2026-05-05 05:33 56.85567 17.54705 36888 ft 432 kts 195°
2026-05-05 05:34 56.80642 17.53096 36889 ft 432 kts 195°
2026-05-05 05:34 56.74714 17.51164 36889 ft 432 kts 195°
2026-05-05 05:35 56.68781 17.49236 36859 ft 432 kts 195°
2026-05-05 05:35 56.62879 17.47325 36899 ft 434 kts 195°
2026-05-05 05:36 56.56928 17.45404 36896 ft 434 kts 195°
2026-05-05 05:36 56.50978 17.43489 36896 ft 434 kts 195°
2026-05-05 05:37 56.45037 17.41584 36900 ft 434 kts 195°
2026-05-05 05:37 56.39126 17.39694 36894 ft 433 kts 195°
2026-05-05 05:38 56.33186 17.37801 36907 ft 433 kts 195°
2026-05-05 05:38 56.27237 17.35911 36905 ft 433 kts 195°
2026-05-05 05:39 56.21301 17.34030 36908 ft 433 kts 195°
2026-05-05 05:39 56.15385 17.32162 36895 ft 433 kts 195°
2026-05-05 05:40 56.09460 17.30298 36897 ft 432 kts 195°
2026-05-05 05:40 56.03558 17.28446 37195 ft 433 kts 195°
2026-05-05 05:41 56.00583 17.27515 37420 ft 434 kts 195°
2026-05-05 05:41 55.97604 17.26584 37648 ft 434 kts 195°
2026-05-05 05:41 55.94626 17.25655 37880 ft 435 kts 195°
2026-05-05 05:41 55.91639 17.24725 38101 ft 435 kts 195°
2026-05-05 05:42 55.88654 17.23796 38301 ft 436 kts 194°
2026-05-05 05:42 55.85675 17.22870 38578 ft 434 kts 194°
2026-05-05 05:42 55.82731 17.21956 38751 ft 434 kts 194°
2026-05-05 05:42 55.79747 17.21032 38890 ft 434 kts 194°
2026-05-05 05:43 55.73770 17.19184 38923 ft 435 kts 194°
2026-05-05 05:43 55.67845 17.17359 38924 ft 434 kts 194°
2026-05-05 05:44 55.61968 17.15024 38921 ft 428 kts 202°
2026-05-05 05:44 55.56227 17.12041 38910 ft 430 kts 200°
2026-05-05 05:45 55.50479 17.09171 38930 ft 431 kts 200°
2026-05-05 05:45 55.44706 17.06308 38933 ft 431 kts 200°
2026-05-05 05:46 55.38921 17.03450 38934 ft 431 kts 200°
2026-05-05 05:46 55.33188 17.00625 38938 ft 432 kts 200°
2026-05-05 05:47 55.27385 16.97775 38936 ft 432 kts 200°
2026-05-05 05:47 55.21582 16.94934 38939 ft 432 kts 200°
2026-05-05 05:48 55.15785 16.92104 38939 ft 432 kts 200°
2026-05-05 05:48 55.09999 16.89288 38935 ft 431 kts 200°
2026-05-05 05:49 55.04272 16.86509 38939 ft 430 kts 200°
2026-05-05 05:49 54.98489 16.83712 38941 ft 430 kts 200°
2026-05-05 05:50 54.92709 16.80923 38943 ft 430 kts 200°
2026-05-05 05:50 54.86983 16.78170 38944 ft 430 kts 200°
2026-05-05 05:51 54.81206 16.75400 38944 ft 430 kts 200°
2026-05-05 05:51 54.75425 16.72636 38944 ft 430 kts 200°
2026-05-05 05:52 54.69641 16.69879 38948 ft 430 kts 200°
2026-05-05 05:52 54.63910 16.67156 38947 ft 430 kts 200°
2026-05-05 05:53 54.58156 16.64429 38944 ft 427 kts 199°
2026-05-05 05:53 54.52418 16.61717 38946 ft 427 kts 199°
2026-05-05 05:54 54.46686 16.59017 38948 ft 427 kts 199°
2026-05-05 05:54 54.40951 16.56324 38949 ft 427 kts 199°
2026-05-05 05:55 54.35240 16.53649 38939 ft 427 kts 199°
2026-05-05 05:55 54.29478 16.50957 38952 ft 428 kts 199°
2026-05-05 05:56 54.23759 16.48294 38953 ft 428 kts 199°
2026-05-05 05:56 54.18012 16.45626 38951 ft 428 kts 199°
2026-05-05 05:57 54.12273 16.42969 38936 ft 428 kts 199°
2026-05-05 05:57 54.06504 16.40305 38947 ft 429 kts 199°
2026-05-05 05:58 54.00776 16.37668 38950 ft 429 kts 199°
2026-05-05 05:58 53.94984 16.35010 38948 ft 429 kts 199°
2026-05-05 05:59 53.89266 16.32392 38927 ft 429 kts 199°
2026-05-05 05:59 53.83478 16.29751 38950 ft 431 kts 199°
2026-05-05 06:00 53.77674 16.27109 38948 ft 431 kts 198°
2026-05-05 06:00 53.71911 16.24494 38946 ft 431 kts 198°
2026-05-05 06:01 53.66120 16.21874 38948 ft 431 kts 198°
2026-05-05 06:01 53.60317 16.19255 38939 ft 431 kts 198°
2026-05-05 06:02 53.54523 16.16648 38940 ft 431 kts 198°
2026-05-05 06:02 53.48763 16.14063 38937 ft 431 kts 198°
2026-05-05 06:03 53.42978 16.11475 38940 ft 431 kts 198°
2026-05-05 06:03 53.37175 16.08886 38937 ft 431 kts 198°
2026-05-05 06:04 53.31419 16.06325 38935 ft 431 kts 198°
2026-05-05 06:04 53.25620 16.03752 38936 ft 431 kts 198°
2026-05-05 06:05 53.19827 16.01190 38939 ft 431 kts 198°
2026-05-05 06:05 53.14026 15.98631 38924 ft 431 kts 198°
2026-05-05 06:06 53.08244 15.96086 38932 ft 431 kts 198°
2026-05-05 06:06 53.02430 15.93538 38929 ft 430 kts 198°
2026-05-05 06:07 52.96677 15.91019 38925 ft 429 kts 198°
2026-05-05 06:07 52.90914 15.88505 38910 ft 428 kts 198°
2026-05-05 06:08 52.85145 15.85994 38920 ft 428 kts 198°
2026-05-05 06:08 52.79416 15.83508 38922 ft 428 kts 198°
2026-05-05 06:09 52.73634 15.81006 38919 ft 428 kts 198°
2026-05-05 06:09 52.67879 15.78523 38901 ft 428 kts 198°
2026-05-05 06:10 52.62103 15.76037 38913 ft 428 kts 198°
2026-05-05 06:10 52.56362 15.73573 38915 ft 428 kts 198°
2026-05-05 06:11 52.50588 15.71102 38913 ft 429 kts 198°
2026-05-05 06:11 52.44852 15.68653 38904 ft 429 kts 198°
2026-05-05 06:12 52.39075 15.66194 38899 ft 428 kts 198°
2026-05-05 06:12 52.33292 15.63738 38894 ft 428 kts 198°
2026-05-05 06:13 52.27508 15.61289 38893 ft 428 kts 198°
2026-05-05 06:13 52.21776 15.58869 38878 ft 428 kts 198°
2026-05-05 06:14 52.15990 15.56432 38887 ft 429 kts 198°
2026-05-05 06:14 52.10241 15.54017 38887 ft 429 kts 198°
2026-05-05 06:15 52.04450 15.51591 38889 ft 429 kts 198°
2026-05-05 06:15 51.98670 15.49176 38894 ft 429 kts 198°
2026-05-05 06:16 51.92922 15.46781 38887 ft 429 kts 198°
2026-05-05 06:16 51.87138 15.44377 38890 ft 429 kts 198°
2026-05-05 06:17 51.81345 15.41976 38880 ft 429 kts 198°
2026-05-05 06:17 51.75592 15.39598 38882 ft 429 kts 198°
2026-05-05 06:18 51.69816 15.37216 38881 ft 428 kts 198°
2026-05-05 06:18 51.64065 15.34852 38885 ft 428 kts 198°
2026-05-05 06:19 51.58278 15.32478 38878 ft 428 kts 198°
2026-05-05 06:19 51.52498 15.30114 38877 ft 428 kts 197°
2026-05-05 06:20 51.46768 15.27775 38872 ft 428 kts 198°
2026-05-05 06:20 51.40993 15.25424 38872 ft 428 kts 198°
2026-05-05 06:21 51.36191 15.23474 38870 ft 428 kts 198°
2026-05-05 06:21 51.29475 15.20753 38870 ft 428 kts 198°
2026-05-05 06:22 51.23706 15.18422 38863 ft 427 kts 198°
2026-05-05 06:22 51.18905 15.16487 38862 ft 427 kts 198°
2026-05-05 06:23 51.13127 15.14164 38863 ft 428 kts 198°
2026-05-05 06:23 51.07350 15.11846 38861 ft 428 kts 198°
2026-05-05 06:24 51.01632 15.09517 38849 ft 426 kts 201°
2026-05-05 06:24 50.96009 15.06528 38861 ft 425 kts 201°
2026-05-05 06:25 50.90377 15.03609 38850 ft 425 kts 201°
2026-05-05 06:25 50.84779 15.00728 38855 ft 425 kts 201°
2026-05-05 06:26 50.79142 14.97836 38848 ft 425 kts 201°
2026-05-05 06:26 50.73512 14.94954 38851 ft 425 kts 201°
2026-05-05 06:27 50.65102 14.90663 38837 ft 425 kts 201°
2026-05-05 06:28 50.59492 14.87810 38839 ft 425 kts 201°
2026-05-05 06:28 50.53867 14.84956 38846 ft 425 kts 201°
2026-05-05 06:29 50.48234 14.82106 38859 ft 425 kts 201°
2026-05-05 06:29 50.42602 14.79263 38856 ft 425 kts 201°
2026-05-05 06:30 50.37006 14.76445 38849 ft 425 kts 201°
2026-05-05 06:30 50.31361 14.73610 38869 ft 425 kts 201°
2026-05-05 06:31 50.25776 14.70812 38880 ft 425 kts 201°
2026-05-05 06:31 50.20134 14.67992 38881 ft 425 kts 201°
2026-05-05 06:32 50.14508 14.65187 38883 ft 425 kts 201°
2026-05-05 06:32 50.08901 14.62399 38885 ft 425 kts 201°
2026-05-05 06:33 50.03258 14.59599 38881 ft 425 kts 201°
2026-05-05 06:33 49.97617 14.56808 38880 ft 425 kts 201°
2026-05-05 06:34 49.92002 14.54036 38865 ft 425 kts 201°
2026-05-05 06:34 49.86356 14.51255 38869 ft 426 kts 200°
2026-05-05 06:35 49.80716 14.48485 38868 ft 425 kts 200°
2026-05-05 06:35 49.75096 14.45731 38864 ft 426 kts 200°
2026-05-05 06:36 49.69439 14.42965 38864 ft 427 kts 200°
2026-05-05 06:36 49.63862 14.40246 38864 ft 427 kts 200°
2026-05-05 06:37 49.58206 14.37494 38861 ft 427 kts 200°
2026-05-05 06:37 49.52564 14.34756 38852 ft 427 kts 200°
2026-05-05 06:38 49.46912 14.32020 38869 ft 428 kts 200°
2026-05-05 06:38 49.41231 14.29276 38862 ft 428 kts 200°
2026-05-05 06:39 49.35558 14.26543 38862 ft 428 kts 200°
2026-05-05 06:39 49.29886 14.23818 38852 ft 428 kts 200°
2026-05-05 06:40 49.24232 14.21106 38865 ft 429 kts 200°
2026-05-05 06:40 49.18524 14.18376 38862 ft 428 kts 200°
2026-05-05 06:41 49.12828 14.15659 38859 ft 428 kts 200°
2026-05-05 06:41 49.07175 14.12968 38859 ft 429 kts 200°
2026-05-05 06:42 49.01472 14.10259 38859 ft 429 kts 200°
2026-05-05 06:42 48.95750 14.07549 38862 ft 429 kts 200°
2026-05-05 06:43 48.90087 14.04873 38861 ft 429 kts 200°
2026-05-05 06:43 48.84384 14.02184 38856 ft 428 kts 199°
2026-05-05 06:44 48.78707 13.99514 38862 ft 428 kts 199°
2026-05-05 06:44 48.73007 13.96839 38864 ft 428 kts 199°
2026-05-05 06:45 48.67300 13.94168 38867 ft 428 kts 199°
2026-05-05 06:45 48.61615 13.91513 38869 ft 427 kts 199°
2026-05-05 06:46 48.55930 13.88864 38865 ft 428 kts 199°
2026-05-05 06:46 48.50265 13.86231 38868 ft 427 kts 199°
2026-05-05 06:47 48.44569 13.83590 38865 ft 428 kts 199°
2026-05-05 06:47 48.38926 13.80979 38863 ft 428 kts 199°
2026-05-05 06:48 48.33236 13.78353 38864 ft 428 kts 199°
2026-05-05 06:48 48.27544 13.75731 38864 ft 428 kts 199°
2026-05-05 06:49 48.21872 13.73125 38862 ft 428 kts 199°
2026-05-05 06:49 48.16177 13.70516 38866 ft 427 kts 199°
2026-05-05 06:50 48.10517 13.67927 38866 ft 428 kts 199°
2026-05-05 06:50 48.04828 13.65331 38864 ft 428 kts 199°
2026-05-05 06:51 47.99153 13.62748 38865 ft 428 kts 199°
2026-05-05 06:51 47.93447 13.60157 38864 ft 427 kts 199°
2026-05-05 06:52 47.87753 13.57577 38865 ft 428 kts 199°
2026-05-05 06:52 47.82083 13.55014 38861 ft 427 kts 199°
2026-05-05 06:53 47.76396 13.52449 38865 ft 427 kts 199°
2026-05-05 06:53 47.70746 13.49907 38868 ft 427 kts 199°
2026-05-05 06:54 47.65022 13.47336 38874 ft 427 kts 199°
2026-05-05 06:54 47.59323 13.44782 38886 ft 428 kts 199°
2026-05-05 06:55 47.53645 13.42244 38887 ft 428 kts 199°
2026-05-05 06:55 47.47963 13.39709 38882 ft 428 kts 199°
2026-05-05 06:56 47.42270 13.37174 38887 ft 428 kts 199°
2026-05-05 06:56 47.36548 13.34634 38896 ft 428 kts 199°
2026-05-05 06:57 47.31215 13.32160 38912 ft 428 kts 200°
2026-05-05 06:57 47.25953 13.29602 38920 ft 428 kts 200°
2026-05-05 06:58 47.20441 13.26940 38913 ft 429 kts 200°
2026-05-05 06:58 47.14957 13.24296 38938 ft 429 kts 200°
2026-05-05 06:59 47.09332 13.21591 38970 ft 428 kts 200°
2026-05-05 06:59 47.03660 13.18869 38940 ft 428 kts 200°
2026-05-05 07:00 46.98002 13.16160 38966 ft 426 kts 200°
2026-05-05 07:00 46.92408 13.13486 38990 ft 427 kts 200°
2026-05-05 07:01 46.86756 13.10795 38982 ft 425 kts 200°
2026-05-05 07:01 46.81106 13.08108 38973 ft 426 kts 200°
2026-05-05 07:02 46.75498 13.05446 39002 ft 426 kts 200°
2026-05-05 07:02 46.69867 13.02779 38993 ft 425 kts 200°
2026-05-05 07:03 46.64256 13.00128 39002 ft 426 kts 200°
2026-05-05 07:03 46.58606 12.97465 39007 ft 426 kts 200°
2026-05-05 07:04 46.52996 12.94826 38988 ft 425 kts 200°
2026-05-05 07:04 46.47369 12.92185 39017 ft 425 kts 200°
2026-05-05 07:05 46.41729 12.89544 39007 ft 426 kts 200°
2026-05-05 07:05 46.36072 12.86900 39021 ft 427 kts 199°
2026-05-05 07:06 46.30442 12.84275 39010 ft 426 kts 200°
2026-05-05 07:06 46.24789 12.81644 39016 ft 427 kts 200°
2026-05-05 07:07 46.19133 12.79018 39026 ft 427 kts 200°
2026-05-05 07:07 46.13462 12.76391 39020 ft 427 kts 200°
2026-05-05 07:08 46.07834 12.73789 39025 ft 427 kts 200°
2026-05-05 07:08 46.02176 12.71179 39018 ft 427 kts 200°
2026-05-05 07:09 45.96523 12.68577 39019 ft 427 kts 200°
2026-05-05 07:09 45.90891 12.65990 39022 ft 427 kts 200°
2026-05-05 07:10 45.86175 12.63828 39011 ft 427 kts 200°
2026-05-05 07:10 45.79579 12.60811 39013 ft 427 kts 200°
2026-05-05 07:11 45.74868 12.58660 39012 ft 427 kts 200°
2026-05-05 07:11 45.68275 12.55657 39014 ft 427 kts 200°
2026-05-05 07:12 45.63563 12.53515 39011 ft 427 kts 200°
2026-05-05 07:12 45.57897 12.50945 39017 ft 427 kts 200°
2026-05-05 07:13 45.52233 12.48381 39020 ft 427 kts 200°
2026-05-05 07:13 45.46602 12.45837 39016 ft 427 kts 200°
2026-05-05 07:14 45.40933 12.43281 39021 ft 426 kts 200°
2026-05-05 07:14 45.35294 12.40745 39014 ft 426 kts 200°
2026-05-05 07:15 45.29639 12.38207 39000 ft 426 kts 200°
2026-05-05 07:15 45.23959 12.35661 39007 ft 427 kts 200°
2026-05-05 07:16 45.18325 12.33141 39004 ft 427 kts 200°
2026-05-05 07:16 45.12648 12.30608 39000 ft 427 kts 200°
2026-05-05 07:17 45.06947 12.28141 38991 ft 430 kts 196°
2026-05-05 07:17 45.01139 12.26102 39001 ft 431 kts 197°
2026-05-05 07:18 44.95366 12.24027 39000 ft 430 kts 197°
2026-05-05 07:18 44.89538 12.21928 38992 ft 432 kts 197°
2026-05-05 07:19 44.83731 12.19841 39005 ft 433 kts 197°
2026-05-05 07:19 44.77902 12.17751 39002 ft 433 kts 197°
2026-05-05 07:20 44.72057 12.15659 38991 ft 433 kts 198°
2026-05-05 07:20 44.66188 12.13563 39005 ft 435 kts 198°
2026-05-05 07:21 44.60340 12.11479 39002 ft 435 kts 198°
2026-05-05 07:21 44.54471 12.09392 38997 ft 435 kts 198°
2026-05-05 07:22 44.48578 12.07300 39005 ft 436 kts 198°
2026-05-05 07:22 44.42723 12.05226 39003 ft 436 kts 198°
2026-05-05 07:23 44.36821 12.03140 39006 ft 436 kts 198°
2026-05-05 07:23 44.30941 12.01066 39010 ft 436 kts 198°
2026-05-05 07:24 44.25091 11.99007 39025 ft 436 kts 198°
2026-05-05 07:24 44.19208 11.96941 39017 ft 435 kts 198°
2026-05-05 07:25 44.13319 11.94876 39018 ft 436 kts 198°
2026-05-05 07:25 44.07447 11.92821 39018 ft 436 kts 198°
2026-05-05 07:26 44.01602 11.90784 39024 ft 435 kts 198°
2026-05-05 07:26 43.95717 11.88739 39019 ft 433 kts 199°
2026-05-05 07:27 43.89870 11.86711 39032 ft 433 kts 199°
2026-05-05 07:27 43.84064 11.84701 39025 ft 433 kts 199°
2026-05-05 07:28 43.78141 11.83038 39013 ft 439 kts 185°
2026-05-05 07:28 43.75089 11.83485 39040 ft 445 kts 173°
2026-05-05 07:28 43.72037 11.84370 39030 ft 449 kts 173°
2026-05-05 07:29 43.65967 11.86212 39046 ft 449 kts 173°
2026-05-05 07:29 43.59905 11.88126 38071 ft 452 kts 172°
2026-05-05 07:29 43.56831 11.89105 37423 ft 449 kts 172°
2026-05-05 07:30 43.53786 11.90073 36756 ft 448 kts 172°
2026-05-05 07:30 43.47666 11.92016 35281 ft 449 kts 171°
2026-05-05 07:30 43.44618 11.92982 34558 ft 450 kts 171°
2026-05-05 07:31 43.41543 11.93955 33651 ft 453 kts 171°
2026-05-05 07:31 43.38528 11.94907 32883 ft 451 kts 171°
2026-05-05 07:31 43.35458 11.95878 31812 ft 456 kts 171°
2026-05-05 07:31 43.32347 11.96860 30842 ft 460 kts 170°
2026-05-05 07:32 43.29226 11.97844 29996 ft 460 kts 170°
2026-05-05 07:32 43.26091 11.98830 28971 ft 461 kts 170°
2026-05-05 07:32 43.22961 11.99814 28025 ft 461 kts 170°
2026-05-05 07:32 43.19841 12.00795 27348 ft 456 kts 170°
2026-05-05 07:33 43.16800 12.01750 26635 ft 452 kts 171°
2026-05-05 07:33 43.13751 12.02706 25945 ft 448 kts 170°
2026-05-05 07:33 43.10729 12.03653 25247 ft 444 kts 170°
2026-05-05 07:33 43.07718 12.04594 24541 ft 441 kts 171°
2026-05-05 07:34 43.04729 12.05529 23858 ft 438 kts 170°
2026-05-05 07:34 43.01766 12.06455 23096 ft 435 kts 170°
2026-05-05 07:34 42.98817 12.07375 22359 ft 432 kts 171°
2026-05-05 07:34 42.95937 12.08272 21699 ft 427 kts 171°
2026-05-05 07:35 42.93048 12.09172 21031 ft 423 kts 171°
2026-05-05 07:35 42.90191 12.10061 20575 ft 414 kts 171°
2026-05-05 07:35 42.87424 12.10921 20329 ft 402 kts 171°
2026-05-05 07:35 42.84741 12.11754 20097 ft 390 kts 171°
2026-05-05 07:36 42.82127 12.12565 19903 ft 380 kts 171°
2026-05-05 07:36 42.79607 12.13346 19709 ft 371 kts 171°
2026-05-05 07:36 42.77117 12.14118 19528 ft 363 kts 171°
2026-05-05 07:36 42.74676 12.14874 19331 ft 355 kts 171°
2026-05-05 07:37 42.72288 12.15612 19186 ft 346 kts 171°
2026-05-05 07:37 42.69969 12.16415 18887 ft 345 kts 163°
2026-05-05 07:37 42.67883 12.17979 18559 ft 346 kts 153°
2026-05-05 07:37 42.65814 12.19628 18218 ft 343 kts 154°
2026-05-05 07:38 42.63750 12.21266 17809 ft 341 kts 154°
2026-05-05 07:38 42.61713 12.22890 17439 ft 339 kts 154°
2026-05-05 07:38 42.59684 12.24510 17067 ft 336 kts 154°
2026-05-05 07:38 42.57701 12.26093 16709 ft 334 kts 154°
2026-05-05 07:39 42.55705 12.27687 16333 ft 332 kts 155°
2026-05-05 07:39 42.53715 12.29273 15985 ft 331 kts 155°
2026-05-05 07:39 42.51722 12.30861 15626 ft 332 kts 155°
2026-05-05 07:39 42.49726 12.32449 15254 ft 334 kts 155°
2026-05-05 07:40 42.47718 12.34048 14888 ft 334 kts 155°
2026-05-05 07:40 42.45708 12.35649 14461 ft 335 kts 155°
2026-05-05 07:40 42.43725 12.37227 14119 ft 332 kts 154°
2026-05-05 07:40 42.41742 12.38803 13780 ft 330 kts 155°
2026-05-05 07:41 42.39774 12.40366 13388 ft 328 kts 155°
2026-05-05 07:41 42.37813 12.41923 13013 ft 325 kts 154°
2026-05-05 07:41 42.35848 12.43400 12646 ft 319 kts 161°
2026-05-05 07:41 42.33761 12.44313 12275 ft 313 kts 168°
2026-05-05 07:42 42.31686 12.45160 11945 ft 310 kts 167°
2026-05-05 07:42 42.29630 12.46012 11611 ft 307 kts 167°
2026-05-05 07:42 42.27593 12.46862 11326 ft 306 kts 167°
2026-05-05 07:42 42.25559 12.47695 10976 ft 305 kts 171°
2026-05-05 07:43 42.23490 12.47715 10523 ft 295 kts 200°
2026-05-05 07:43 42.21811 12.46343 10209 ft 285 kts 229°
2026-05-05 07:43 42.20827 12.44081 9960 ft 278 kts 251°
2026-05-05 07:43 42.20246 12.41602 9667 ft 274 kts 251°
2026-05-05 07:44 42.19666 12.39171 9375 ft 270 kts 251°
2026-05-05 07:44 42.19318 12.36718 9155 ft 266 kts 272°
2026-05-05 07:44 42.19933 12.34449 9050 ft 263 kts 303°
2026-05-05 07:44 42.21360 12.32959 9003 ft 261 kts 333°
2026-05-05 07:45 42.23082 12.32258 8973 ft 256 kts 338°
2026-05-05 07:45 42.24789 12.31555 8938 ft 256 kts 338°
2026-05-05 07:45 42.26492 12.30845 8877 ft 256 kts 338°
2026-05-05 07:45 42.28204 12.30129 8798 ft 256 kts 338°
2026-05-05 07:46 42.29905 12.29415 8730 ft 256 kts 338°
2026-05-05 07:46 42.31586 12.28707 8660 ft 256 kts 338°
2026-05-05 07:46 42.33288 12.27991 8594 ft 256 kts 338°
2026-05-05 07:46 42.34991 12.27274 8528 ft 256 kts 338°
2026-05-05 07:47 42.36688 12.26557 8464 ft 256 kts 337°
2026-05-05 07:47 42.38396 12.25835 8404 ft 257 kts 335°
2026-05-05 07:47 42.39938 12.24726 8209 ft 246 kts 310°
2026-05-05 07:47 42.40867 12.22898 8018 ft 229 kts 283°
2026-05-05 07:48 42.41077 12.20840 7904 ft 222 kts 262°
2026-05-05 07:48 42.40793 12.18781 7907 ft 224 kts 255°
2026-05-05 07:48 42.40434 12.16739 7785 ft 222 kts 253°
2026-05-05 07:48 42.40039 12.14737 7659 ft 218 kts 252°
2026-05-05 07:49 42.39628 12.12788 7489 ft 212 kts 250°
2026-05-05 07:49 42.38878 12.11131 7274 ft 206 kts 222°
2026-05-05 07:49 42.37606 12.10282 7114 ft 209 kts 194°
2026-05-05 07:49 42.36131 12.10372 6992 ft 219 kts 170°
2026-05-05 07:50 42.34664 12.10958 6934 ft 224 kts 168°
2026-05-05 07:50 42.33169 12.11570 6830 ft 224 kts 168°
2026-05-05 07:50 42.31674 12.12189 6706 ft 224 kts 168°
2026-05-05 07:50 42.30183 12.12813 6578 ft 224 kts 168°
2026-05-05 07:51 42.28692 12.13439 6434 ft 224 kts 168°
2026-05-05 07:51 42.27210 12.14064 6294 ft 222 kts 168°
2026-05-05 07:51 42.25736 12.14687 6177 ft 221 kts 168°
2026-05-05 07:51 42.24272 12.15306 6059 ft 220 kts 168°
2026-05-05 07:52 42.22817 12.15920 5947 ft 220 kts 168°
2026-05-05 07:52 42.21361 12.16535 5582 ft 224 kts 168°
2026-05-05 07:52 42.19856 12.17169 5287 ft 222 kts 167°
2026-05-05 07:52 42.18417 12.17779 5098 ft 218 kts 167°
2026-05-05 07:53 42.16981 12.18386 4915 ft 213 kts 168°
2026-05-05 07:53 42.15566 12.18938 4730 ft 209 kts 176°
2026-05-05 07:53 42.14160 12.18789 4621 ft 202 kts 193°
2026-05-05 07:53 42.12770 12.18431 4509 ft 203 kts 194°
2026-05-05 07:54 42.11374 12.18081 4391 ft 205 kts 192°
2026-05-05 07:54 42.09986 12.17707 4198 ft 207 kts 194°
2026-05-05 07:54 42.08586 12.17290 3983 ft 203 kts 193°
2026-05-05 07:54 42.07215 12.16940 3870 ft 199 kts 184°
2026-05-05 07:55 42.05848 12.17182 3795 ft 200 kts 167°
2026-05-05 07:55 42.04530 12.17739 3713 ft 200 kts 166°
2026-05-05 07:55 42.03206 12.18309 3591 ft 198 kts 166°
2026-05-05 07:55 42.01926 12.18854 3546 ft 187 kts 166°
2026-05-05 07:56 42.00701 12.19371 3308 ft 183 kts 166°
2026-05-05 07:56 41.99499 12.19880 3068 ft 178 kts 165°
2026-05-05 07:56 41.98331 12.20374 2861 ft 176 kts 165°
2026-05-05 07:56 41.97159 12.20867 2600 ft 175 kts 164°
2026-05-05 07:57 41.96025 12.21345 2377 ft 170 kts 165°
2026-05-05 07:57 41.94914 12.21814 2145 ft 164 kts 165°
2026-05-05 07:57 41.93845 12.22263 1929 ft 158 kts 164°
2026-05-05 07:57 41.92813 12.22698 1733 ft 150 kts 164°
2026-05-05 07:58 41.91875 12.23090 1545 ft 133 kts 162°
2026-05-05 07:58 41.91014 12.23454 1423 ft 130 kts 162°
2026-05-05 07:58 41.90154 12.23816 1216 ft 127 kts 161°
2026-05-05 07:58 41.89318 12.24169 1024 ft 125 kts 161°
2026-05-05 07:59 41.88472 12.24522 841 ft 130 kts 160°
2026-05-05 07:59 41.87585 12.24896 672 ft 136 kts 159°
2026-05-05 07:59 41.86685 12.25270 482 ft 134 kts 159°
2026-05-05 07:59 41.85816 12.25641 327 ft 134 kts 159°
2026-05-05 08:00 41.84889 12.26007 147 ft 138 kts 160°
2026-05-05 08:00 41.84022 12.26384 15 ft 120 kts 160°
2026-05-05 08:00 41.83313 12.26694 17 ft 93 kts 163°
2026-05-05 08:00 41.82810 12.26900 23 ft 58 kts 163°
2026-05-05 08:01 41.82606 12.26986 17 ft 35 kts 162°
2026-05-05 08:01 41.82381 12.27080 12 ft 35 kts 164°
2026-05-05 08:01 41.82154 12.27139 12 ft 31 kts 175°
2026-05-05 08:01 41.81960 12.27109 12 ft 28 kts 193°
2026-05-05 08:02 41.81779 12.27054 17 ft 26 kts 191°
2026-05-05 08:02 41.81622 12.27073 19 ft 19 kts 162°
2026-05-05 08:02 41.81493 12.27128 23 ft 20 kts 164°
2026-05-05 08:02 41.81348 12.27188 18 ft 24 kts 162°
2026-05-05 08:03 41.81189 12.27255 16 ft 25 kts 162°
2026-05-05 08:03 41.81022 12.27318 15 ft 22 kts 164°
2026-05-05 08:03 41.80895 12.27345 16 ft 18 kts 183°
2026-05-05 08:03 41.80764 12.27318 15 ft 20 kts 190°
2026-05-05 08:04 41.80652 12.27215 16 ft 22 kts 243°
2026-05-05 08:04 41.80606 12.27040 15 ft 19 kts 251°
2026-05-05 08:04 41.80559 12.26863 19 ft 21 kts 248°
2026-05-05 08:04 41.80501 12.26664 18 ft 24 kts 250°
2026-05-05 08:05 41.80453 12.26490 16 ft 16 kts 250°
2026-05-05 08:05 41.80416 12.26354 18 ft 17 kts 250°
2026-05-05 08:05 41.80373 12.26197 16 ft 18 kts 249°
2026-05-05 08:05 41.80280 12.26075 16 ft 20 kts 204°
2026-05-05 08:06 41.80148 12.25993 19 ft 22 kts 204°
2026-05-05 08:06 41.80006 12.25906 21 ft 20 kts 205°
2026-05-05 08:06 41.79918 12.25852 20 ft 14 kts 204°
2026-05-05 08:06 41.79841 12.25795 21 ft 9 kts 210°
2026-05-05 08:07 41.79779 12.25756 21 ft 6 kts 200°
2026-05-05 08:07 41.79760 12.25732 23 ft 5 kts 248°
2026-05-05 08:07 41.79760 12.25696 21 ft 3 kts 281°
2026-05-05 08:07 41.79765 12.25674 21 ft 1 kts 293°
2026-05-05 08:08 41.79766 12.25671 21 ft 0 kts 294°